Location: Brno
(49.2000°N, 16.6330°E)
Time: 04:37:45
(UTC+01:00)

ISS - Pass Details

Date: 03 December 2021
Orbit: 413 x 422 km, 51.6° (Epoch: 22 January)

Event Time Altitude Azimuth Distance (km) Brightness Sun altitude
Rises 18:38:45 0° 289° (WNW) 2,383 1.1 -25.5°
Reaches altitude 10° 18:40:57 10° 281° (W) 1,513 0.0 -25.9°
Enters shadow 18:43:02 28° 253° (WSW) 826 -1.7 -26.2°
